User: anonymous
Location: Unspecified
(0.0000°N, 0.0000°E)
Time: 23:13:31
(UTC+02:00)
Language:

ARIANE 5 R/B - Orbit

View from above orbital plane
View from above orbital plane
View from above satellite
View from above satellite

Ground track
Ground track

The orbit data is extracted from the following two-line orbital elements,

1 27510U 02040C   14291.52733274 -.00000271  00000-0 -71456-3 0   833
2 27510 004.9952 228.0504 7158230 309.4822 350.7529 02.27182366100785
Epoch (UTC): 18 October 2014 12:39:21
Eccentricity: 0.7158230
inclination: 4.9952°
perigee height: 568 km
apogee height: 35561 km
right ascension of ascending node: 228.0504°
argument of perigee: 309.4822°
revolutions per day: 2.27182366
mean anomaly at epoch: 350.7529°
orbit number at epoch: 10078

The dashed part of the orbit path shows where the satellite is in the earth's shadow,  

DLR